Regional Weather Roundup
Issued by NWS Kansas City/Pleasant Hill, MO

Home | Current Version | Previous Version | Graphics & Text | Print | Product List | Glossary Off
Versions: 1 2 3 4 5 6 7 8 9 10 11 12 13 14 15 16 17 18 19 20 21 22 23 24 25 26 27 28 29 30 31 32 33 34 35 36 37 38 39 40 41 42 43 44 45 46 47 48 49 50

000
ASUS43 KEAX 231510
RWREAX

WEATHER ROUNDUP FOR EASTERN KANSAS AND NORTHWEST MISSOURI
NATIONAL WEATHER SERVICE KANSAS CITY/PLEASANT HILL MO
1000 AM CDT SAT AUG 23 2014

KSZ040-057-103>105-MOZ028-029-037-043-231600-
...KANSAS CITY METROPOLITAN AREA...

CITY           SKY/WX    TMP DP  RH WIND       PRES   REMARKS
K.C. INTL      PTSUNNY   83  70  64 S8        29.93S
K.C. DOWNTOWN  SUNNY     85  69  58 S8        29.91F
LEES SUMMIT    SUNNY     82  69  64 S9        29.94F
OLATHE - IXD   SUNNY     84  68  58 S9        29.94R
OLATHE - OJC   SUNNY     81  70  69 S9        29.93S
LAWRENCE       SUNNY     87  68  52 S8        29.91F HX  90

$$

MOZ001>008-011>017-020>025-030>033-038>040-044>046-053-054-231600-
...NORTHERN AND CENTRAL MISSOURI...

CITY           SKY/WX    TMP DP  RH WIND       PRES   REMARKS
ST. JOSEPH     SUNNY     83  73  72 SE9       29.90F
MOSBY          SUNNY     81  70  69 E8        29.92S
WHITEMAN AFB   MOSUNNY   82  66  56 SW13      29.94S
CLINTON        MOSUNNY   84  73  70 S10       29.97F HX  91
SEDALIA        MOSUNNY   87  72  60 SW15      29.96F HX  93
WARSAW         NOT AVBL
MARSHALL       MOSUNNY   86  75  70 W6        29.96F HX  95
CHILLICOTHE      N/A     83  73  72 S6        29.93F
KIRKSVILLE     PTSUNNY   76  72  87 VRB3      29.98F

$$

MOZ041-047>049-056>058-063>065-088>090-097-231600-
...EASTERN AND SOUTHERN MISSOURI...

CITY           SKY/WX    TMP DP  RH WIND       PRES   REMARKS
ST. LOUIS INTL NOT AVBL
SPIRIT OF STL  MOSUNNY   87  74  64 W8        29.96S HX  95
COLUMBIA       SUNNY     86  72  62 SW9       29.97F HX  92
JEFFERSON CITY SUNNY     87  72  60 VRB5      29.96F HX  93
MEXICO         SUNNY     88  77  70 W7        29.97S HX 100
ROLLA          SUNNY     85  72  65 SW8       30.00S HX  91
LEBANON        SUNNY     90  66  45 W14       30.03S HX  92
OSAGE BEACH    SUNNY     86  70  58 SW9       29.99S HX  90
SPRINGFIELD    MOSUNNY   87  68  52 SW13      30.02S HX  90
BRANSON        SUNNY     90  70  51 SW8       30.05S HX  95
NEVADA         SUNNY     86  70  58 SW13      29.98S HX  90
JOPLIN         SUNNY     87  68  52 SW14      30.00R HX  90
WEST PLAINS    MOSUNNY   83  71  67 W9        30.06R

$$

IAZ060-094-KSZ022-034>040-054-083-096-NEZ052-066-093-231600-
...KANSAS...SOUTHEAST NEBRASKA AND IOWA...

CITY           SKY/WX    TMP DP  RH WIND       PRES   REMARKS
TOPEKA         SUNNY     84  68  58 S8        29.90F
MANHATTAN      SUNNY     84  62  47 S8        29.88F
EMPORIA        SUNNY     81  66  60 S14       29.91S
CHANUTE        SUNNY     86  66  51 SW14      29.95F
WICHITA        SUNNY     85  57  38 S15       29.91S
OMAHA          CLOUDY    77  71  82 SE9       29.88R
LINCOLN        MOSUNNY   77  70  79 SE12      29.88F
FALLS CITY     SUNNY     80  74  81 SE8       29.88F
LAMONI         CLOUDY    73  71  93 E7        29.92F
DES MOINES     CLOUDY    74  71  91 SE8       29.92R

$$




USA.gov is the U.S. government's official web portal to all federal, state and local government web resources and services.